Weather History for Charleston, SC

Change the Weather History Date:

Thursday, October 2, 2014

  Actual Average Record
Temperature  
Mean Temperature 75 °F 71 °F  
Max Temperature 86 °F 81 °F 93 °F (1986)
Min Temperature 63 °F 62 °F 43 °F (1946)
Degree Days  
Heating Degree Days 0 1  
Month to date heating degree days 0 2  
Since 1 July heating degree days 0 5  
Cooling Degree Days 10 7  
Month to date cooling degree days 20 14  
Year to date cooling degree days 2588 2152  
Growing Degree Days 24 (Base 50)    
Moisture  
Dew Point 65 °F    
Average Humidity 71    
Maximum Humidity 93    
Minimum Humidity 48    
Precipitation  
Precipitation 0.00 in 0.17 in 2.63 in (1994)
Month to date precipitation 0.00 0.33  
Year to date precipitation 43.99 42.07  
Sea Level Pressure  
Sea Level Pressure 30.07 in    
Wind  
Wind Speed 3 mph (SE)    
Max Wind Speed 12 mph    
Max Gust Speed 14 mph    
Visibility 9 miles    
Events Fog    
T = Trace of Precipitation, MM = Missing Value Source: NWS Daily Summary

Daily Weather History Graph

Daily Weather History Graph

Search for Another Location

Airport:

Trip Planner

Search our weather history database for the weather conditions in past years. The results will help you decide how hot, cold, wet, or windy it might be!

Date:

Astronomy

Oct. 02, 2014 Rise Set
Actual Time 7:15 AM EDT 7:03 PM EDT
Civil Twilight 6:50 AM EDT 7:28 PM EDT
Nautical Twilight 6:21 AM EDT 7:56 PM EDT
Astronomical Twilight 5:53 AM EDT 8:25 PM EDT
Moon 2:52 PM EDT (10/2) 12:47 AM EDT (10/2)
Length of Visible Light 12h 37m
Length of Day
11h 48m
First Quarter, 60% of the Moon is Illuminated
Oct 2
First Quarter
Oct 8
Full
Oct 15
Last Quarter
Oct 23
New
Oct 30
First Quarter

Hourly Weather History & Observations

Time (EDT) Temp. Heat Index Dew Point Humidity Pressure Visibility Wind Dir Wind Speed Gust Speed Precip Events Conditions
12:56 AM 66.9 °F - 64.0 °F 90% 30.03 in 10.0 mi Calm Calm - N/A   Partly Cloudy
1:56 AM 66.0 °F - 63.0 °F 90% 30.04 in 10.0 mi Calm Calm - N/A   Partly Cloudy
2:56 AM 64.9 °F - 62.1 °F 90% 30.04 in 8.0 mi Calm Calm - N/A   Partly Cloudy
3:56 AM 64.0 °F - 62.1 °F 93% 30.04 in 9.0 mi North 3.5 mph - N/A   Partly Cloudy
4:56 AM 64.0 °F - 61.0 °F 90% 30.04 in 10.0 mi Calm Calm - N/A   Clear
5:56 AM 64.9 °F - 63.0 °F 93% 30.05 in 7.0 mi Calm Calm - N/A   Clear
6:56 AM 64.9 °F - 62.1 °F 90% 30.06 in 8.0 mi Calm Calm - N/A Fog Patches of Fog
7:56 AM 66.0 °F - 63.0 °F 90% 30.08 in 6.0 mi Calm Calm - N/A   Partly Cloudy
8:56 AM 73.0 °F - 66.9 °F 81% 30.10 in 8.0 mi Calm Calm - N/A   Partly Cloudy
9:56 AM 79.0 °F - 68.0 °F 69% 30.12 in 10.0 mi Calm Calm - N/A   Clear
10:56 AM 82.0 °F 84.9 °F 68.0 °F 62% 30.12 in 10.0 mi ENE 5.8 mph - N/A   Partly Cloudy
11:56 AM 82.0 °F 83.1 °F 63.0 °F 52% 30.11 in 10.0 mi Calm Calm - N/A   Partly Cloudy
12:56 PM 84.9 °F 86.1 °F 64.0 °F 49% 30.10 in 10.0 mi Variable 3.5 mph - N/A   Scattered Clouds
1:56 PM 84.0 °F 84.9 °F 63.0 °F 49% 30.08 in 10.0 mi Calm Calm - N/A   Mostly Cloudy
2:56 PM 84.0 °F 85.8 °F 64.9 °F 53% 30.06 in 10.0 mi ESE 5.8 mph - N/A   Mostly Cloudy
3:56 PM 84.0 °F 86.3 °F 66.0 °F 55% 30.06 in 10.0 mi SE 6.9 mph - N/A   Mostly Cloudy
4:56 PM 84.0 °F 85.4 °F 64.0 °F 51% 30.05 in 10.0 mi SSE 9.2 mph - N/A   Scattered Clouds
5:56 PM 81.0 °F 82.5 °F 64.0 °F 56% 30.05 in 10.0 mi SSE 8.1 mph - N/A   Partly Cloudy
6:56 PM 77.0 °F - 64.9 °F 66% 30.06 in 10.0 mi SSE 10.4 mph - N/A   Clear
7:56 PM 73.9 °F - 66.9 °F 79% 30.06 in 10.0 mi SSE 5.8 mph - N/A   Clear
8:56 PM 73.0 °F - 66.9 °F 81% 30.07 in 10.0 mi Calm Calm - N/A   Clear
9:56 PM 73.0 °F - 66.9 °F 81% 30.08 in 10.0 mi South 4.6 mph - N/A   Clear
10:56 PM 73.0 °F - 66.9 °F 81% 30.08 in 10.0 mi Calm Calm - N/A   Clear
11:56 PM 71.1 °F - 66.9 °F 87% 30.08 in 10.0 mi Calm Calm - N/A   Clear